[[{"header":{"parameterUnit":"m.s-1","parameterCategory":2,"la1":30.2991,"la2":30.254,"lo1":-89.0895,"lo2":-89.0444,"dy":0.0017,"dx":0.0017,"nx":28,"ny":28,"refTime":"2024-06-18T03:00:00:Z","depth":"0","parameterNumber":2,"parameterNumberName":"U-component_of_CURRENTS"},"data":[0,0,0,0,0,0,0,0,0,0,0,0,0,0,0,0,0,0,0,0,0,0,0,0,0,0,0,0,0,0,0,0,0,0,0,0,0,0,0,0,0,0,0,0,0,0,0,0,0,0,0,0,0,0,0,0,0,0,0.1813,0.1813,0,0.1769,0.1769,0.1768,0.1737,0.1737,0.1737,0.1737,0.1677,0.1675,0.1674,0,0,0,0,0,0,0,0,0,0,0,0,0,0.1892,0.189,0.1813,0.1813,0.1813,0.1769,0.1769,0.1768,0.1737,0.1737,0.1737,0.1737,0.1677,0.1675,0.1674,0,0,0,0,0,0,0,0,0,0,0,0,0,0.1852,0.189,0.1814,0.1794,0.1792,0.177,0.1769,0.1768,0.1737,0.1737,0.1737,0.1737,0.1678,0.1676,0.1673,0.1659,0,0,0.1666,0.1665,0,0,0,0,0,0,0,0,0.1854,0.1848,0.1797,0.1795,0.1793,0.1761,0.1774,0.1731,0.1737,0.1755,0.1737,0.1737,0.1705,0.17,0.1689,0.1657,0.1654,0.1666,0.1664,0.1663,0.1663,0,0,0,0,0,0,0,0.1857,0.185,0.1794,0.1797,0.1794,0.1795,0.1789,0.1766,0.1729,0.1754,0.1752,0.1751,0.1703,0.1691,0.1687,0.1653,0.1666,0.1664,0.1662,0.1661,0.1651,0.1652,0,0,0,0,0,0,0.1865,0.1853,0.1795,0.1793,0.1827,0.1793,0.1786,0.1769,0.1729,0.1724,0.1751,0.175,0.1695,0.169,0.1685,0.1695,0.1663,0.1661,0.166,0.165,0.1651,0.1653,0,0,0,0,0,0,0.1867,0.186,0.1797,0.1825,0.1817,0.1792,0.1773,0.1768,0.1762,0.1728,0.1722,0.1751,0.1695,0.1688,0.1677,0.1691,0.166,0.1658,0.1649,0.165,0.1652,0.1695,0,0,0,0,0,0,0.1869,0.186,0.1852,0.1825,0.1816,0.179,0.1773,0.1768,0.1762,0.176,0.1725,0.1719,0.1695,0.1681,0.1675,0.1687,0.1656,0.1647,0.1649,0.1652,0.1692,0.1698,0.1703,0,0,0,0,0,0.1872,0.1854,0.1852,0.1845,0.1804,0.179,0.1785,0.1767,0.1763,0.1761,0.1743,0.1721,0.1691,0.1679,0.1672,0.1684,0.1646,0.1649,0.1651,0.169,0.1697,0.1703,0,0,0,0,0,0,0.1871,0.1848,0.1846,0.1818,0.1813,0.1786,0.1779,0.1773,0.1757,0.1756,0.1726,0.1719,0.1718,0.1698,0.1686,0.1691,0.1668,0.167,0.17,0.1707,0.1712,0.1722,0.1654,0,0,0,0,0,0.1872,0.1857,0.1842,0.1822,0.1821,0.1805,0.1798,0.179,0.1773,0.1766,0.1745,0.173,0.1722,0.1712,0.1699,0.1692,0.1701,0.17,0.1706,0.171,0.1716,0.175,0.176,0.1661,0.1661,0.1661,0,0,0.1862,0.1852,0.184,0.1823,0.1814,0.1811,0.18,0.1792,0.1792,0.1762,0.1753,0.1746,0.1727,0.1725,0.1723,0.1708,0.1745,0.1713,0.1717,0.1721,0.1754,0.1764,0.1772,0.1663,0.1663,0.1662,0,0,0.1844,0.1832,0.1821,0.1822,0.1821,0.1815,0.1819,0.1805,0.1803,0.1797,0.1786,0.1792,0.1763,0.1762,0.1756,0.1784,0.1776,0.1781,0.1809,0.1842,0.1851,0.1858,0.1891,0.1901,0.1779,0.178,0.178,0,0.1836,0.1815,0.1817,0.1817,0.1816,0.1821,0.1816,0.1818,0.1804,0.181,0.18,0.1798,0.1783,0.1796,0.1809,0.1796,0.1814,0.1782,0.185,0.1857,0.1864,0.1896,0.1906,0.1782,0.1782,0.1781,0.1781,0,0.1815,0.1806,0.1802,0.1804,0.1809,0.1803,0.1816,0.1824,0.1827,0.1831,0.1849,0.184,0.1842,0.1844,0.1831,0.1874,0.1872,0.1856,0.1832,0.1877,0.1907,0.1917,0.1785,0.1785,0.1784,0.1783,0,0,0.1758,0.1781,0.1777,0.1782,0.1801,0.1797,0.1819,0.1834,0.1849,0.1858,0.1879,0.1886,0.1897,0.1894,0.189,0.1919,0.1986,0.191,0.1911,0.1942,0.2067,0.203,0.2038,0.1983,0.1985,0.1986,0.2072,0,0.1734,0.1734,0.1753,0.1752,0.1751,0.1782,0.18,0.1825,0.1847,0.1873,0.1899,0.1915,0.1912,0.1919,0.1953,0.1977,0.2014,0.1965,0.202,0.2022,0.1983,0.2048,0.1786,0.1838,0.2082,0.2084,0.2085,0,0.169,0.1702,0.1699,0.173,0.1733,0.1742,0.1778,0.1798,0.1856,0.1878,0.192,0.1941,0.1996,0.198,0.2063,0.2033,0.2059,0.2077,0.208,0.2037,0.2004,0.1831,0.1847,0.1678,0.21,0.2099,0.2098,0,0.163,0.1653,0.1651,0.1658,0.17,0.1714,0.1742,0.1796,0.1818,0.1891,0.1917,0.1983,0.2015,0.207,0.212,0.2098,0.2209,0.2177,0.2171,0.2168,0.1951,0.1927,0.1804,0.224,0.2239,0.2239,0.2239,0,0.1576,0.1567,0.1626,0.1619,0.1627,0.168,0.1697,0.1741,0.1807,0.1827,0.1918,0.1943,0.2041,0.2109,0.2148,0.2203,0.2237,0.2195,0.2194,0.196,0.1937,0.1784,0.1698,0.2242,0.2242,0.2241,0.224,0,0.1488,0.1524,0.1524,0.1578,0.1593,0.16,0.1659,0.1677,0.1758,0.1792,0.1818,0.1933,0.2021,0.2118,0.2212,0.2229,0.2153,0.2292,0.2018,0.1984,0.1804,0.173,0.1651,0.159,0.2294,0.2294,0.2294,0,0.1435,0.1432,0.148,0.1484,0.1503,0.153,0.1546,0.1632,0.1658,0.1762,0.1773,0.189,0.1918,0.2079,0.2135,0.2217,0.2112,0.2044,0.1953,0.1775,0.1692,0.1658,0.161,0.1683,0.1678,0.1673,0.167,0,0.1347,0.1372,0.1385,0.1399,0.1413,0.1417,0.1456,0.1465,0.1557,0.1584,0.1622,0.1655,0.1806,0.1779,0.1932,0.1944,0.1809,0.1961,0.1822,0.125,0.1155,0.1099,0.1664,0.1632,0.1635,0.1638,0.164,0.1642,0.1287,0.1277,0.1308,0.1299,0.1316,0.1291,0.125,0.1287,0.1284,0.1257,0.139,0.1309,0.1356,0.1515,0.1621,0.1485,0.1576,0.1312,0.1256,0.126,0.1122,0.163,0.1575,0.1578,0.1581,0.1584,0.1586,0,0.1199,0.1201,0.1203,0.1194,0.1159,0.119,0.117,0.1095,0.1018,0.0986,0.0961,0.0775,0.0749,0.0847,0.0783,0.072,0.0755,0.0644,0.0458,0.0468,0.0916,0.0806,0.0523,0.0523,0.0523,0.0524,0.0524,0.0524,0.1161,0.112,0.1108,0.1025,0.1011,0.0893,0.0834,0.073,0.0663,0.0437,0.0249,0.0206,0.0101,-0.0057,-0.0122,-0.0031,-0.0075,-0.0126,0.0012,0.0186,0.0241,0.0295,0.0171,-0.0241,-0.0242,-0.0531,-0.0535,-0.0537]},{"header":{"parameterUnit":"m.s-1","parameterCategory":2,"la1":30.2991,"la2":30.254,"lo1":-89.0895,"lo2":-89.0444,"dy":0.0017,"dx":0.0017,"nx":28,"ny":28,"refTime":"2024-06-18T03:00:00:Z","depth":"0","parameterNumber":3,"parameterNumberName":"V-component_of_CURRENTS"},"data":[0,0,0,0,0,0,0,0,0,0,0,0,0,0,0,0,0,0,0,0,0,0,0,0,0,0,0,0,0,0,0,0,0,0,0,0,0,0,0,0,0,0,0,0,0,0,0,0,0,0,0,0,0,0,0,0,0,0,-0.0311,-0.0312,0,-0.0385,-0.0386,-0.0387,-0.0423,-0.0423,-0.0422,-0.0422,-0.0487,-0.0489,-0.0491,0,0,0,0,0,0,0,0,0,0,0,0,0,-0.0236,-0.0237,-0.0311,-0.0312,-0.0313,-0.0385,-0.0386,-0.0387,-0.0423,-0.0423,-0.0422,-0.0422,-0.0486,-0.0489,-0.0491,0,0,0,0,0,0,0,0,0,0,0,0,0,-0.0285,-0.0237,-0.0311,-0.0339,-0.0343,-0.0385,-0.0386,-0.0388,-0.0423,-0.0423,-0.0422,-0.0422,-0.0486,-0.0488,-0.0491,-0.0508,0,0,-0.0499,-0.05,0,0,0,0,0,0,0,0,-0.0282,-0.0288,-0.0334,-0.0338,-0.0341,-0.0395,-0.0383,-0.0428,-0.0423,-0.0392,-0.0422,-0.0422,-0.0455,-0.046,-0.0475,-0.0512,-0.0514,-0.0499,-0.0501,-0.0502,-0.0503,0,0,0,0,0,0,0,-0.0279,-0.0285,-0.0341,-0.0335,-0.034,-0.036,-0.0367,-0.0392,-0.0423,-0.0395,-0.0398,-0.0406,-0.0457,-0.0472,-0.0476,-0.0515,-0.0499,-0.0502,-0.0503,-0.0504,-0.0562,-0.0562,0,0,0,0,0,0,-0.0268,-0.0282,-0.0339,-0.0343,-0.0311,-0.0362,-0.0369,-0.0378,-0.0423,-0.043,-0.0406,-0.0407,-0.0468,-0.0473,-0.0479,-0.0487,-0.0502,-0.0504,-0.0506,-0.0562,-0.0562,-0.0562,0,0,0,0,0,0,-0.0266,-0.0272,-0.0336,-0.0314,-0.0323,-0.0363,-0.0372,-0.0379,-0.0392,-0.0431,-0.0438,-0.0412,-0.0468,-0.0475,-0.0497,-0.049,-0.0506,-0.0508,-0.0562,-0.0562,-0.0562,-0.0513,0,0,0,0,0,0,-0.0263,-0.0271,-0.0273,-0.0313,-0.0324,-0.0356,-0.0373,-0.0381,-0.0398,-0.04,-0.0439,-0.0445,-0.0468,-0.0493,-0.0499,-0.0494,-0.051,-0.0562,-0.0562,-0.0562,-0.0514,-0.0511,-0.0508,0,0,0,0,0,-0.026,-0.0263,-0.0272,-0.0279,-0.0326,-0.0356,-0.0363,-0.0391,-0.0398,-0.0403,-0.0427,-0.0444,-0.0497,-0.0495,-0.0503,-0.0498,-0.0562,-0.0562,-0.0562,-0.0516,-0.0512,-0.0508,0,0,0,0,0,0,-0.0231,-0.0268,-0.0279,-0.0293,-0.0319,-0.0361,-0.0369,-0.0387,-0.0412,-0.0411,-0.0445,-0.0453,-0.047,-0.0492,-0.0489,-0.0515,-0.0531,-0.0533,-0.0494,-0.049,-0.0487,-0.0472,-0.0512,0,0,0,0,0,-0.0225,-0.0237,-0.0273,-0.0283,-0.0293,-0.0329,-0.0344,-0.0362,-0.039,-0.0401,-0.0427,-0.0454,-0.0477,-0.0489,-0.0514,-0.0529,-0.0547,-0.0531,-0.0528,-0.0525,-0.0518,-0.0545,-0.0543,-0.0561,-0.0561,-0.0561,0,0,-0.0217,-0.0238,-0.0245,-0.0278,-0.0299,-0.031,-0.0338,-0.0356,-0.0363,-0.0403,-0.0417,-0.0444,-0.0479,-0.0495,-0.0504,-0.0511,-0.0529,-0.0525,-0.0522,-0.0517,-0.0545,-0.0543,-0.0541,-0.0561,-0.0561,-0.0561,0,0,-0.0204,-0.0223,-0.0226,-0.0244,-0.0273,-0.0294,-0.0296,-0.0332,-0.0345,-0.0365,-0.0393,-0.0413,-0.0453,-0.0473,-0.0489,-0.0484,-0.0511,-0.0493,-0.0465,-0.049,-0.0489,-0.0488,-0.0502,-0.0503,-0.0491,-0.0491,-0.0491,0,-0.0191,-0.0202,-0.0231,-0.0237,-0.0246,-0.0282,-0.0282,-0.0303,-0.0341,-0.0346,-0.0361,-0.0412,-0.0441,-0.0458,-0.0456,-0.0475,-0.0492,-0.0474,-0.0485,-0.0484,-0.0484,-0.0499,-0.0501,-0.0488,-0.0489,-0.0489,-0.0489,0,-0.0181,-0.0188,-0.0189,-0.0207,-0.022,-0.0227,-0.0254,-0.0264,-0.0282,-0.0304,-0.0325,-0.0367,-0.0395,-0.0409,-0.0432,-0.0443,-0.0456,-0.0477,-0.0491,-0.0479,-0.0496,-0.0498,-0.0485,-0.0486,-0.0486,-0.0487,0,0,-0.015,-0.0177,-0.0175,-0.0175,-0.0202,-0.0209,-0.0214,-0.023,-0.0224,-0.0264,-0.0264,-0.0311,-0.0333,-0.0353,-0.0386,-0.0409,-0.0422,-0.0438,-0.0441,-0.0445,-0.0472,-0.0452,-0.0453,-0.0447,-0.0447,-0.0448,-0.0481,0,-0.0129,-0.013,-0.0149,-0.0141,-0.0142,-0.0166,-0.0165,-0.0182,-0.02,-0.0208,-0.0252,-0.0267,-0.0312,-0.032,-0.0353,-0.0402,-0.0427,-0.041,-0.0489,-0.049,-0.0469,-0.0455,-0.0407,-0.0431,-0.0483,-0.0484,-0.0484,0,-0.0105,-0.0111,-0.0101,-0.0105,-0.0105,-0.0102,-0.0098,-0.0103,-0.0124,-0.0137,-0.0164,-0.02,-0.0235,-0.0276,-0.0357,-0.0345,-0.0403,-0.0446,-0.0449,-0.0449,-0.0475,-0.0454,-0.0433,-0.0481,-0.0488,-0.0487,-0.0487,0,-0.0064,-0.0071,-0.006,-0.0063,-0.0075,-0.0065,-0.0067,-0.0078,-0.0069,-0.0088,-0.0079,-0.014,-0.0155,-0.0241,-0.0328,-0.0345,-0.0413,-0.0451,-0.0489,-0.0488,-0.0471,-0.0468,-0.0499,-0.051,-0.051,-0.051,-0.051,0,-0.0034,-0.0023,-0.0037,-0.0031,-0.0005,-0.0025,0.0005,-0.0003,-0.0002,0.0021,-0.0037,-0.0024,-0.0147,-0.02,-0.0301,-0.0387,-0.0394,-0.0475,-0.0494,-0.0452,-0.0447,-0.0507,-0.0525,-0.0511,-0.0511,-0.0511,-0.051,0,0.0008,-0.0005,0.0011,0.0009,0.0014,0.0036,0.0054,0.0074,0.0073,0.0104,0.0105,0.0066,0.0008,-0.0111,-0.0235,-0.0332,-0.0443,-0.0463,-0.0396,-0.0406,-0.0491,-0.0507,-0.0497,-0.0565,-0.0514,-0.0514,-0.0513,0,0.0026,0.0038,0.0049,0.0066,0.0067,0.0092,0.0111,0.0112,0.0135,0.0166,0.0187,0.0156,0.0147,-0.0015,-0.0172,-0.0326,-0.0405,-0.0411,-0.0442,-0.0477,-0.0509,-0.0485,-0.0543,-0.0402,-0.04,-0.0399,-0.0399,0,0.0064,0.007,0.008,0.0112,0.0137,0.016,0.0187,0.0217,0.023,0.0265,0.0309,0.0316,0.0212,0.0101,-0.0097,-0.0219,-0.0408,-0.0397,-0.0455,-0.0433,-0.0385,-0.0465,-0.0395,-0.039,-0.0391,-0.0392,-0.0392,-0.0393,0.0097,0.0113,0.0127,0.0156,0.018,0.0207,0.0218,0.0261,0.0304,0.0333,0.038,0.0376,0.03,0.0059,-0.0094,-0.0326,-0.0334,-0.041,-0.0429,-0.0404,-0.0451,-0.0351,-0.0354,-0.0355,-0.0355,-0.0356,-0.0356,0,0.0126,0.0137,0.0168,0.0189,0.0207,0.0214,0.0247,0.0244,0.0284,0.0339,0.0379,0.0361,0.0245,0.006,-0.0172,-0.0325,-0.0412,-0.0422,-0.0391,-0.0463,-0.0392,-0.0372,-0.035,-0.035,-0.035,-0.035,-0.035,-0.035,0.0141,0.0163,0.0168,0.0193,0.0206,0.0194,0.0196,0.0207,0.0223,0.0239,0.0239,0.0236,0.0156,0.0039,-0.0237,-0.0336,-0.0473,-0.0423,-0.0554,-0.0508,-0.0509,-0.051,-0.0497,-0.0502,-0.0502,-0.0605,-0.0606,-0.0607]}],[{"header":{"parameterUnit":"m.s-1","parameterCategory":2,"la1":30.2991,"la2":30.254,"lo1":-89.0895,"lo2":-89.0444,"dy":0.0017,"dx":0.0017,"nx":28,"ny":28,"refTime":"2024-06-18T03:00:00:Z","depth":"2","parameterNumber":2,"parameterNumberName":"U-component_of_CURRENTS"},"data":[0,0,0,0,0,0,0,0,0,0,0,0,0,0,0,0,0,0,0,0,0,0,0,0,0,0,0,0,0,0,0,0,0,0,0,0,0,0,0,0,0,0,0,0,0,0,0,0,0,0,0,0,0,0,0,0,0,0,0.1849,0.1849,0,0.1805,0.1805,0.1804,0.1773,0.1773,0.1773,0.1773,0.1713,0.1712,0.171,0,0,0,0,0,0,0,0,0,0,0,0,0,0.1926,0.1925,0.1849,0.1849,0.1848,0.1806,0.1805,0.1804,0.1773,0.1773,0.1773,0.1773,0.1714,0.1712,0.171,0,0,0,0,0,0,0,0,0,0,0,0,0,0.1887,0.1924,0.1849,0.183,0.1828,0.1806,0.1805,0.1804,0.1773,0.1773,0.1773,0.1773,0.1715,0.1712,0.171,0.1697,0,0,0.1703,0.1702,0,0,0,0,0,0,0,0,0.1889,0.1883,0.1833,0.1831,0.1829,0.1797,0.181,0.1768,0.1773,0.1791,0.1773,0.1773,0.1741,0.1737,0.1726,0.1694,0.1691,0.1703,0.1701,0.17,0.17,0,0,0,0,0,0,0,0.1892,0.1885,0.1829,0.1832,0.183,0.183,0.1824,0.1802,0.1765,0.179,0.1788,0.1787,0.174,0.1728,0.1724,0.169,0.1703,0.1701,0.1699,0.1698,0.1689,0.169,0,0,0,0,0,0,0.19,0.1888,0.1831,0.1828,0.1862,0.1829,0.1822,0.1805,0.1766,0.176,0.1787,0.1786,0.1732,0.1727,0.1722,0.1732,0.17,0.1698,0.1697,0.1688,0.1689,0.1691,0,0,0,0,0,0,0.1902,0.1895,0.1833,0.186,0.1852,0.1828,0.1809,0.1804,0.1798,0.1764,0.1758,0.1787,0.1732,0.1725,0.1714,0.1728,0.1697,0.1695,0.1687,0.1689,0.169,0.1733,0,0,0,0,0,0,0.1904,0.1895,0.1887,0.186,0.1851,0.1825,0.1809,0.1804,0.1798,0.1796,0.1762,0.1756,0.1731,0.1718,0.1712,0.1724,0.1693,0.1685,0.1688,0.169,0.173,0.1736,0.1741,0,0,0,0,0,0.1907,0.1889,0.1887,0.188,0.184,0.1826,0.1821,0.1803,0.1798,0.1797,0.1779,0.1757,0.1728,0.1716,0.1709,0.1721,0.1684,0.1687,0.1689,0.1728,0.1735,0.1741,0,0,0,0,0,0,0.1905,0.1883,0.1881,0.1854,0.1848,0.1822,0.1815,0.1809,0.1793,0.1792,0.1762,0.1755,0.1755,0.1735,0.1723,0.1729,0.1706,0.1707,0.1738,0.1744,0.1749,0.176,0.1691,0,0,0,0,0,0.1907,0.1892,0.1877,0.1857,0.1857,0.1841,0.1834,0.1826,0.1809,0.1802,0.1782,0.1766,0.1759,0.1749,0.1736,0.173,0.1739,0.1738,0.1743,0.1748,0.1754,0.1788,0.1798,0.1699,0.1699,0.1699,0,0,0.1896,0.1887,0.1875,0.1858,0.185,0.1846,0.1836,0.1828,0.1828,0.1798,0.179,0.1782,0.1764,0.1762,0.1761,0.1746,0.1783,0.1751,0.1755,0.1758,0.1792,0.1802,0.181,0.1701,0.1701,0.17,0,0,0.1879,0.1867,0.1856,0.1858,0.1856,0.1851,0.1854,0.184,0.1838,0.1833,0.1822,0.1828,0.18,0.1799,0.1793,0.1822,0.1814,0.1819,0.1846,0.188,0.1889,0.1896,0.1929,0.1939,0.1817,0.1817,0.1817,0,0.1871,0.185,0.1852,0.1852,0.1851,0.1857,0.1852,0.1854,0.184,0.1846,0.1836,0.1835,0.182,0.1833,0.1846,0.1834,0.1852,0.182,0.1888,0.1895,0.1902,0.1933,0.1944,0.182,0.1819,0.1819,0.1819,0,0.185,0.1841,0.1837,0.1839,0.1845,0.1839,0.1852,0.1861,0.1863,0.1868,0.1886,0.1877,0.1879,0.1881,0.1868,0.1912,0.1909,0.1894,0.187,0.1914,0.1945,0.1955,0.1823,0.1822,0.1822,0.1821,0,0,0.1793,0.1817,0.1812,0.1818,0.1836,0.1833,0.1855,0.187,0.1885,0.1895,0.1915,0.1923,0.1934,0.1931,0.1928,0.1956,0.2023,0.1948,0.1949,0.1979,0.2104,0.2067,0.2074,0.2021,0.2022,0.2024,0.2109,0,0.1769,0.1769,0.1789,0.1788,0.1787,0.1818,0.1836,0.1862,0.1884,0.191,0.1937,0.1953,0.1949,0.1956,0.199,0.2015,0.2051,0.2002,0.2058,0.206,0.202,0.2085,0.1903,0.196,0.2119,0.2121,0.2122,0,0.1725,0.1737,0.1735,0.1766,0.1769,0.1779,0.1815,0.1835,0.1893,0.1915,0.1957,0.1978,0.2033,0.2018,0.21,0.207,0.2096,0.2114,0.2118,0.2073,0.2041,0.194,0.1972,0.2139,0.2137,0.2136,0.2135,0,0.1665,0.1688,0.1686,0.1694,0.1737,0.175,0.1778,0.1833,0.1855,0.1928,0.1954,0.202,0.2052,0.2107,0.2157,0.2135,0.2246,0.2214,0.2207,0.2204,0.2055,0.2037,0.2277,0.2277,0.2277,0.2276,0.2276,0,0.1611,0.1602,0.1661,0.1655,0.1663,0.1716,0.1733,0.1777,0.1843,0.1863,0.1954,0.198,0.2077,0.2146,0.2185,0.2239,0.2274,0.2231,0.2231,0.2066,0.2048,0.2199,0.2188,0.2279,0.2279,0.2278,0.2278,0,0.1523,0.1559,0.1559,0.1614,0.1629,0.1635,0.1695,0.1713,0.1795,0.1828,0.1855,0.197,0.2057,0.2155,0.2248,0.2265,0.2322,0.2327,0.2133,0.2108,0.225,0.2241,0.233,0.2329,0.2329,0.2329,0.2328,0,0.147,0.1467,0.1516,0.1519,0.1538,0.1565,0.1581,0.1668,0.1694,0.1798,0.1809,0.1926,0.1963,0.2123,0.2202,0.2292,0.232,0.2162,0.2081,0.2269,0.2259,0.2251,0.2243,0.1905,0.1901,0.1898,0.1896,0,0.1382,0.1407,0.142,0.1434,0.1448,0.1453,0.1492,0.1501,0.1593,0.1633,0.1671,0.1712,0.1881,0.1908,0.2071,0.2087,0.2136,0.2102,0.2358,0.1919,0.1875,0.1863,0.1868,0.1869,0.1872,0.1874,0.1875,0.1876,0.1322,0.1312,0.1343,0.1334,0.1351,0.1327,0.1286,0.138,0.1396,0.147,0.1532,0.1585,0.1693,0.1849,0.1843,0.187,0.2015,0.1933,0.1939,0.195,0.1884,0.1842,0.1818,0.182,0.1822,0.1824,0.1825,0,0.1255,0.1236,0.1238,0.1229,0.1224,0.1225,0.1207,0.1228,0.1242,0.1351,0.1407,0.1388,0.1436,0.1534,0.1542,0.1593,0.1546,0.1515,0.143,0.146,0.1486,0.1393,0.1198,0.1196,0.1194,0.1192,0,0,0.1222,0.1193,0.1182,0.1116,0.1083,0.1036,0.098,0.1046,0.1134,0.121,0.1232,0.141,0.1478,0.133,0.1338,0.1249,0.1327,0.1194,0.1702,0.1629,0.1651,0.1741,0.1635,0,0,0,0,0]},{"header":{"parameterUnit":"m.s-1","parameterCategory":2,"la1":30.2991,"la2":30.254,"lo1":-89.0895,"lo2":-89.0444,"dy":0.0017,"dx":0.0017,"nx":28,"ny":28,"refTime":"2024-06-18T03:00:00:Z","depth":"2","parameterNumber":3,"parameterNumberName":"V-component_of_CURRENTS"},"data":[0,0,0,0,0,0,0,0,0,0,0,0,0,0,0,0,0,0,0,0,0,0,0,0,0,0,0,0,0,0,0,0,0,0,0,0,0,0,0,0,0,0,0,0,0,0,0,0,0,0,0,0,0,0,0,0,0,0,-0.0315,-0.0316,0,-0.0389,-0.039,-0.039,-0.0426,-0.0426,-0.0426,-0.0426,-0.049,-0.0492,-0.0494,0,0,0,0,0,0,0,0,0,0,0,0,0,-0.0239,-0.024,-0.0315,-0.0316,-0.0317,-0.0389,-0.039,-0.0391,-0.0426,-0.0426,-0.0426,-0.0426,-0.049,-0.0492,-0.0494,0,0,0,0,0,0,0,0,0,0,0,0,0,-0.0288,-0.024,-0.0315,-0.0343,-0.0346,-0.0388,-0.039,-0.0391,-0.0426,-0.0426,-0.0426,-0.0426,-0.0489,-0.0492,-0.0494,-0.0512,0,0,-0.0502,-0.0504,0,0,0,0,0,0,0,0,-0.0286,-0.0291,-0.0338,-0.0341,-0.0345,-0.0398,-0.0387,-0.0431,-0.0426,-0.0396,-0.0426,-0.0426,-0.0459,-0.0464,-0.0478,-0.0515,-0.0518,-0.0503,-0.0504,-0.0505,-0.0506,0,0,0,0,0,0,0,-0.0282,-0.0288,-0.0344,-0.0339,-0.0343,-0.0364,-0.037,-0.0395,-0.0427,-0.0398,-0.0401,-0.0409,-0.046,-0.0476,-0.048,-0.0519,-0.0503,-0.0505,-0.0507,-0.0508,-0.0565,-0.0565,0,0,0,0,0,0,-0.0271,-0.0285,-0.0342,-0.0346,-0.0314,-0.0365,-0.0372,-0.0381,-0.0427,-0.0434,-0.0409,-0.041,-0.0471,-0.0477,-0.0482,-0.049,-0.0505,-0.0508,-0.0509,-0.0565,-0.0565,-0.0565,0,0,0,0,0,0,-0.0269,-0.0275,-0.0339,-0.0317,-0.0327,-0.0366,-0.0376,-0.0382,-0.0396,-0.0435,-0.0442,-0.0415,-0.0471,-0.0479,-0.05,-0.0494,-0.0509,-0.0512,-0.0565,-0.0565,-0.0565,-0.0516,0,0,0,0,0,0,-0.0267,-0.0274,-0.0276,-0.0316,-0.0327,-0.0359,-0.0376,-0.0384,-0.0401,-0.0403,-0.0442,-0.0448,-0.0472,-0.0496,-0.0503,-0.0498,-0.0514,-0.0566,-0.0565,-0.0565,-0.0518,-0.0515,-0.0512,0,0,0,0,0,-0.0264,-0.0266,-0.0276,-0.0283,-0.0329,-0.0359,-0.0366,-0.0394,-0.0401,-0.0406,-0.043,-0.0447,-0.05,-0.0498,-0.0506,-0.0501,-0.0566,-0.0565,-0.0565,-0.0519,-0.0515,-0.0512,0,0,0,0,0,0,-0.0235,-0.0272,-0.0283,-0.0296,-0.0322,-0.0365,-0.0372,-0.0391,-0.0415,-0.0414,-0.0449,-0.0457,-0.0473,-0.0496,-0.0492,-0.0518,-0.0535,-0.0536,-0.0497,-0.0494,-0.0491,-0.0476,-0.0516,0,0,0,0,0,-0.0229,-0.024,-0.0277,-0.0287,-0.0297,-0.0333,-0.0348,-0.0366,-0.0393,-0.0404,-0.043,-0.0457,-0.048,-0.0492,-0.0517,-0.0532,-0.0551,-0.0534,-0.0531,-0.0528,-0.0522,-0.0548,-0.0547,-0.0565,-0.0565,-0.0565,0,0,-0.0221,-0.0242,-0.0249,-0.0281,-0.0302,-0.0313,-0.0341,-0.0359,-0.0366,-0.0407,-0.042,-0.0448,-0.0482,-0.0498,-0.0507,-0.0515,-0.0532,-0.0528,-0.0525,-0.0521,-0.0548,-0.0546,-0.0545,-0.0565,-0.0565,-0.0565,0,0,-0.0208,-0.0226,-0.023,-0.0248,-0.0276,-0.0297,-0.0299,-0.0336,-0.0349,-0.0369,-0.0396,-0.0417,-0.0456,-0.0476,-0.0492,-0.0487,-0.0515,-0.0497,-0.0468,-0.0494,-0.0492,-0.0491,-0.0505,-0.0506,-0.0494,-0.0494,-0.0494,0,-0.0195,-0.0205,-0.0235,-0.0241,-0.025,-0.0285,-0.0286,-0.0306,-0.0344,-0.035,-0.0365,-0.0416,-0.0444,-0.0461,-0.046,-0.0478,-0.0496,-0.0478,-0.0488,-0.0488,-0.0488,-0.0503,-0.0504,-0.0492,-0.0492,-0.0492,-0.0493,0,-0.0184,-0.0191,-0.0193,-0.021,-0.0223,-0.023,-0.0258,-0.0267,-0.0285,-0.0308,-0.0328,-0.037,-0.0398,-0.0412,-0.0436,-0.0446,-0.046,-0.0481,-0.0494,-0.0483,-0.0499,-0.0501,-0.0488,-0.0489,-0.049,-0.0491,0,0,-0.0153,-0.0181,-0.0178,-0.0178,-0.0205,-0.0213,-0.0217,-0.0233,-0.0228,-0.0268,-0.0267,-0.0314,-0.0336,-0.0356,-0.0389,-0.0412,-0.0425,-0.0442,-0.0444,-0.0449,-0.0475,-0.0455,-0.0456,-0.045,-0.0451,-0.0451,-0.0484,0,-0.0133,-0.0134,-0.0153,-0.0145,-0.0146,-0.017,-0.0169,-0.0185,-0.0204,-0.0211,-0.0255,-0.027,-0.0316,-0.0323,-0.0356,-0.0405,-0.043,-0.0414,-0.0492,-0.0493,-0.0473,-0.0458,-0.0414,-0.0438,-0.0486,-0.0487,-0.0487,0,-0.0109,-0.0114,-0.0105,-0.0109,-0.0109,-0.0106,-0.0101,-0.0107,-0.0127,-0.014,-0.0167,-0.0202,-0.0238,-0.0279,-0.036,-0.0348,-0.0406,-0.0449,-0.0452,-0.0452,-0.0478,-0.0461,-0.0441,-0.0491,-0.0491,-0.049,-0.049,0,-0.0068,-0.0074,-0.0063,-0.0067,-0.0079,-0.0068,-0.007,-0.0082,-0.0072,-0.009,-0.0082,-0.0143,-0.0157,-0.0243,-0.033,-0.0348,-0.0415,-0.0454,-0.0492,-0.0491,-0.0477,-0.0474,-0.0513,-0.0513,-0.0513,-0.0513,-0.0512,0,-0.0038,-0.0027,-0.0041,-0.0035,-0.0008,-0.0028,0.0001,-0.0006,-0.0005,0.0018,-0.004,-0.0027,-0.015,-0.0203,-0.0303,-0.039,-0.0397,-0.0478,-0.0496,-0.0458,-0.0453,-0.0522,-0.0522,-0.0514,-0.0514,-0.0513,-0.0513,0,0.0004,-0.0009,0.0007,0.0006,0.001,0.0032,0.0051,0.007,0.007,0.0101,0.0102,0.0063,0.0005,-0.0114,-0.0238,-0.0335,-0.0433,-0.0465,-0.0402,-0.0413,-0.0502,-0.05,-0.0517,-0.0517,-0.0516,-0.0516,-0.0516,0,0.0022,0.0034,0.0045,0.0062,0.0063,0.0089,0.0107,0.0109,0.0132,0.0163,0.0184,0.0153,0.014,-0.0021,-0.0181,-0.0336,-0.0388,-0.0418,-0.0449,-0.0485,-0.0502,-0.05,-0.0499,-0.0413,-0.0412,-0.0411,-0.0411,0,0.006,0.0066,0.0076,0.0108,0.0133,0.0156,0.0183,0.0214,0.0227,0.0257,0.0302,0.0305,0.0199,0.0072,-0.0128,-0.0236,-0.0391,-0.0405,-0.0458,-0.0413,-0.0389,-0.0405,-0.0406,-0.0403,-0.0404,-0.0404,-0.0405,-0.0405,0.0092,0.0109,0.0123,0.0152,0.0176,0.0203,0.0213,0.0242,0.0279,0.0283,0.0346,0.0312,0.0255,-0.0019,-0.0123,-0.0286,-0.0315,-0.0405,-0.0408,-0.0411,-0.0387,-0.0363,-0.0367,-0.0368,-0.0368,-0.0369,-0.0369,0,0.0116,0.0133,0.0163,0.0185,0.0196,0.021,0.0242,0.0222,0.0238,0.0257,0.0272,0.0203,0.0129,0.0022,-0.0184,-0.0285,-0.0302,-0.0337,-0.033,-0.0336,-0.0342,-0.0315,-0.0276,-0.0276,-0.0277,-0.0277,0,0,0.013,0.015,0.0154,0.0176,0.0194,0.0173,0.0175,0.0153,0.0136,0.0115,0.0093,0.0124,0.0091,-0.004,-0.0116,-0.0216,-0.0279,-0.0244,-0.0308,-0.0297,-0.0303,-0.0366,-0.033,0,0,0,0,0]}],[{"header":{"parameterUnit":"m.s-1","parameterCategory":2,"la1":30.2991,"la2":30.254,"lo1":-89.0895,"lo2":-89.0444,"dy":0.0017,"dx":0.0017,"nx":28,"ny":28,"refTime":"2024-06-18T03:00:00:Z","depth":"4","parameterNumber":2,"parameterNumberName":"U-component_of_CURRENTS"},"data":[0,0,0,0,0,0,0,0,0,0,0,0,0,0,0,0,0,0,0,0,0,0,0,0,0,0,0,0,0,0,0,0,0,0,0,0,0,0,0,0,0,0,0,0,0,0,0,0,0,0,0,0,0,0,0,0,0,0,0.1479,0.1479,0,0.1501,0.1501,0.1502,0.1537,0.1538,0.1539,0.154,0.158,0.158,0.1581,0,0,0,0,0,0,0,0,0,0,0,0,0,0.1448,0.1448,0.1479,0.1479,0.148,0.1501,0.1501,0.1502,0.1537,0.1538,0.1539,0.154,0.158,0.158,0.1581,0,0,0,0,0,0,0,0,0,0,0,0,0,0.1463,0.1448,0.1479,0.1501,0.1504,0.1501,0.1501,0.1502,0.1537,0.1538,0.1539,0.1541,0.158,0.158,0.1581,0.156,0,0,0.1582,0.1582,0,0,0,0,0,0,0,0,0.1462,0.1464,0.1498,0.15,0.1503,0.1519,0.1505,0.1522,0.1537,0.1523,0.154,0.1541,0.1561,0.1563,0.1562,0.1561,0.1563,0.1582,0.1582,0.1583,0.1583,0,0,0,0,0,0,0,0.1461,0.1463,0.1486,0.1498,0.1501,0.1504,0.1507,0.1508,0.1534,0.1524,0.1527,0.1532,0.1563,0.1562,0.1564,0.1564,0.1582,0.1583,0.1583,0.1583,0.1644,0.1646,0,0,0,0,0,0,0.1462,0.1462,0.1486,0.1487,0.1487,0.1504,0.1507,0.1511,0.1534,0.1539,0.1531,0.1533,0.156,0.1563,0.1565,0.1626,0.1583,0.1583,0.1583,0.1643,0.1645,0.1646,0,0,0,0,0,0,0.1461,0.1463,0.1485,0.1477,0.148,0.1503,0.1507,0.1511,0.1543,0.1539,0.1544,0.1562,0.1561,0.1565,0.1597,0.1624,0.1583,0.1584,0.1642,0.1644,0.1645,0.1692,0,0,0,0,0,0,0.146,0.1463,0.1481,0.1477,0.148,0.1504,0.1506,0.1511,0.1543,0.1547,0.1567,0.157,0.1563,0.1596,0.1597,0.1624,0.1584,0.164,0.1642,0.1645,0.1689,0.1696,0.1702,0,0,0,0,0,0.1458,0.1471,0.1481,0.1485,0.1499,0.1505,0.1508,0.1527,0.1543,0.156,0.1578,0.1571,0.1613,0.1597,0.1598,0.1626,0.1639,0.1642,0.1645,0.1686,0.1695,0.1701,0,0,0,0,0,0,0.1468,0.1476,0.1487,0.1503,0.1516,0.1513,0.1534,0.1544,0.157,0.1586,0.1583,0.1587,0.1627,0.1621,0.1603,0.1653,0.1626,0.163,0.1658,0.1666,0.1672,0.1673,0.1585,0,0,0,0,0,0.1477,0.1493,0.1498,0.1516,0.1525,0.1536,0.1548,0.156,0.1574,0.1588,0.1602,0.1619,0.1633,0.1646,0.1655,0.1678,0.1676,0.1699,0.1706,0.1711,0.1714,0.1733,0.1741,0.1656,0.1656,0.1656,0,0,0.1486,0.1494,0.1505,0.152,0.1533,0.1545,0.1547,0.1573,0.1591,0.1587,0.1629,0.1642,0.1645,0.1674,0.1691,0.1677,0.1736,0.1715,0.1719,0.1719,0.1737,0.1745,0.1753,0.1658,0.1658,0.1657,0,0,0.1498,0.1521,0.1535,0.1547,0.1572,0.1575,0.1591,0.1607,0.1629,0.1659,0.1667,0.1699,0.1718,0.1727,0.1731,0.1776,0.1768,0.1787,0.1819,0.1838,0.1844,0.185,0.1865,0.1871,0.1789,0.1789,0.1789,0,0.1513,0.1527,0.1542,0.1556,0.1571,0.1593,0.1608,0.1626,0.1655,0.1674,0.1684,0.173,0.174,0.1769,0.1792,0.179,0.1799,0.1788,0.1845,0.1851,0.1856,0.1869,0.1876,0.1792,0.1792,0.1791,0.1791,0,0.1522,0.1547,0.1559,0.1583,0.1601,0.1621,0.1642,0.1674,0.1705,0.1719,0.177,0.1785,0.181,0.1825,0.1824,0.1871,0.1865,0.185,0.1824,0.1867,0.1878,0.1885,0.1796,0.1795,0.1794,0.1793,0,0,0.1512,0.1557,0.1564,0.1582,0.1619,0.1628,0.167,0.1701,0.1731,0.1772,0.1808,0.1849,0.1867,0.1874,0.1884,0.1909,0.1961,0.1905,0.1904,0.1914,0.2008,0.1886,0.1881,0.196,0.1961,0.1962,0.2002,0,0.1518,0.1548,0.157,0.1604,0.162,0.1656,0.1685,0.1722,0.176,0.1801,0.1837,0.1875,0.1881,0.1906,0.1933,0.1956,0.198,0.1952,0.1967,0.1968,0.185,0.1884,0.1966,0.2007,0.2008,0.2009,0.201,0,0.1509,0.1534,0.1568,0.1613,0.1624,0.1651,0.1704,0.1735,0.1795,0.1827,0.1876,0.1901,0.1958,0.1951,0.2011,0.1996,0.201,0.2023,0.2024,0.1895,0.1857,0.1953,0.2021,0.202,0.2019,0.2019,0.2018,0,0.1476,0.1527,0.1557,0.1573,0.1627,0.1659,0.1694,0.175,0.1779,0.1854,0.1883,0.1941,0.198,0.2013,0.2047,0.2038,0.2102,0.2083,0.1984,0.1976,0.2053,0.2046,0.2119,0.2119,0.2119,0.2119,0.2119,0,0.145,0.1477,0.1551,0.1564,0.1602,0.1649,0.1694,0.1738,0.18,0.1825,0.1899,0.1919,0.2001,0.2041,0.2062,0.204,0.2112,0.1992,0.1976,0.2073,0.2068,0.2058,0.205,0.212,0.212,0.212,0.2119,0,0.1398,0.1449,0.1487,0.156,0.1586,0.1615,0.1689,0.1713,0.1786,0.1823,0.1851,0.1926,0.1971,0.2032,0.2088,0.2041,0.2044,0.2018,0.2128,0.2117,0.1904,0.1898,0.1903,0.1899,0.1895,0.1892,0.189,0,0.1367,0.1385,0.1475,0.15,0.1539,0.1593,0.1621,0.1699,0.1718,0.1802,0.1804,0.1882,0.192,0.1895,0.1975,0.2,0.1982,0.1969,0.1926,0.1897,0.1882,0.1882,0.1881,0.1885,0.1884,0.1883,0.1882,0,0.131,0.1361,0.1395,0.1449,0.1492,0.1522,0.1571,0.157,0.1644,0.1726,0.1706,0.1723,0.1767,0.1806,0.1842,0.1857,0.1968,0.1933,0.194,0.1899,0.1875,0.1863,0.1867,0.187,0.1872,0.1873,0.1874,0,0.1275,0.1288,0.1348,0.1378,0.1434,0.1434,0.1465,0.1473,0.1497,0.1578,0.1569,0.165,0.1732,0.1732,0.1765,0.1772,0.1747,0.169,0.1709,0.1723,0.1648,0.159,0.1484,0,0,0,0,0,0.123,0.1236,0.1268,0.1297,0.1349,0.1376,0.1422,0.1451,0.1517,0.1459,0.1504,0.153,0.1553,0.1603,0.1578,0.1714,0.1776,0.1679,0.1726,0.1805,0.1818,0.1748,0,0,0,0,0,0,0.1201,0.1235,0.124,0.1224,0.123,0.1267,0.1292,0.1332,0.1297,0.1371,0.1391,0.1451,0.1506,0.1559,0.1554,0.1573,0.1573,0.1738,0.1734,0.1797,0.1809,0.182,0.1753,0,0,0,0,0]},{"header":{"parameterUnit":"m.s-1","parameterCategory":2,"la1":30.2991,"la2":30.254,"lo1":-89.0895,"lo2":-89.0444,"dy":0.0017,"dx":0.0017,"nx":28,"ny":28,"refTime":"2024-06-18T03:00:00:Z","depth":"4","parameterNumber":3,"parameterNumberName":"V-component_of_CURRENTS"},"data":[0,0,0,0,0,0,0,0,0,0,0,0,0,0,0,0,0,0,0,0,0,0,0,0,0,0,0,0,0,0,0,0,0,0,0,0,0,0,0,0,0,0,0,0,0,0,0,0,0,0,0,0,0,0,0,0,0,0,-0.0123,-0.0124,0,-0.0159,-0.016,-0.016,-0.0182,-0.0182,-0.0182,-0.0183,-0.0243,-0.0244,-0.0246,0,0,0,0,0,0,0,0,0,0,0,0,0,-0.0093,-0.0093,-0.0123,-0.0124,-0.0124,-0.0159,-0.016,-0.016,-0.0182,-0.0182,-0.0182,-0.0183,-0.0242,-0.0244,-0.0246,0,0,0,0,0,0,0,0,0,0,0,0,0,-0.0115,-0.0093,-0.0123,-0.0139,-0.0141,-0.0159,-0.016,-0.0161,-0.0182,-0.0182,-0.0183,-0.0183,-0.0242,-0.0244,-0.0246,-0.0258,0,0,-0.0253,-0.0254,0,0,0,0,0,0,0,0,-0.0114,-0.0116,-0.0136,-0.0138,-0.014,-0.0166,-0.0171,-0.0194,-0.0182,-0.0167,-0.0183,-0.0183,-0.0219,-0.0223,-0.023,-0.026,-0.0263,-0.0253,-0.0255,-0.0256,-0.0256,0,0,0,0,0,0,0,-0.0112,-0.0115,-0.0138,-0.0137,-0.0139,-0.0151,-0.0154,-0.0176,-0.0192,-0.0168,-0.017,-0.0173,-0.022,-0.0227,-0.0231,-0.0264,-0.0253,-0.0255,-0.0257,-0.0257,-0.0305,-0.0305,0,0,0,0,0,0,-0.0106,-0.0114,-0.0137,-0.0139,-0.0127,-0.0151,-0.0155,-0.0158,-0.0192,-0.0197,-0.0173,-0.0174,-0.0224,-0.0229,-0.0234,-0.0246,-0.0256,-0.0258,-0.0259,-0.0305,-0.0305,-0.0305,0,0,0,0,0,0,-0.0105,-0.0108,-0.0135,-0.0127,-0.0131,-0.0152,-0.0155,-0.0159,-0.0169,-0.0195,-0.0201,-0.018,-0.0224,-0.023,-0.0249,-0.0249,-0.0259,-0.0261,-0.0305,-0.0305,-0.0305,-0.0273,0,0,0,0,0,0,-0.0104,-0.0107,-0.0109,-0.0126,-0.0131,-0.0147,-0.0155,-0.0159,-0.0171,-0.0173,-0.0203,-0.0209,-0.0224,-0.0246,-0.0252,-0.0252,-0.0263,-0.0305,-0.0305,-0.0305,-0.0274,-0.0272,-0.027,0,0,0,0,0,-0.0103,-0.0107,-0.0109,-0.0112,-0.0133,-0.0147,-0.0151,-0.0166,-0.0171,-0.0176,-0.0192,-0.0208,-0.0249,-0.0248,-0.0254,-0.0255,-0.0305,-0.0305,-0.0305,-0.0275,-0.0272,-0.027,0,0,0,0,0,0,-0.0096,-0.011,-0.0113,-0.0121,-0.0132,-0.0151,-0.0158,-0.0167,-0.0183,-0.0185,-0.0208,-0.0215,-0.0231,-0.0248,-0.0246,-0.0268,-0.0279,-0.028,-0.0254,-0.0252,-0.025,-0.0235,-0.0264,0,0,0,0,0,-0.0094,-0.0099,-0.0113,-0.0119,-0.0124,-0.014,-0.0149,-0.0158,-0.0174,-0.0181,-0.0201,-0.022,-0.0235,-0.0246,-0.0265,-0.0279,-0.0287,-0.0284,-0.0281,-0.0279,-0.0272,-0.0276,-0.0273,-0.0304,-0.0304,-0.0304,0,0,-0.0093,-0.0101,-0.0104,-0.0118,-0.0128,-0.0132,-0.0146,-0.0158,-0.0159,-0.0186,-0.0197,-0.0215,-0.0237,-0.025,-0.0259,-0.0264,-0.0276,-0.0279,-0.0277,-0.0271,-0.0275,-0.0272,-0.027,-0.0304,-0.0304,-0.0304,0,0,-0.0091,-0.0099,-0.0101,-0.0109,-0.0122,-0.013,-0.0133,-0.0151,-0.0157,-0.017,-0.0185,-0.0199,-0.023,-0.0239,-0.0248,-0.0246,-0.0264,-0.0256,-0.0234,-0.0238,-0.0235,-0.0233,-0.0243,-0.0242,-0.0255,-0.0255,-0.0255,0,-0.0089,-0.0091,-0.0105,-0.0107,-0.0109,-0.0127,-0.0125,-0.0135,-0.0156,-0.0155,-0.017,-0.0198,-0.0222,-0.0224,-0.0225,-0.024,-0.0247,-0.0242,-0.0234,-0.0232,-0.023,-0.0241,-0.024,-0.0253,-0.0253,-0.0253,-0.0254,0,-0.0086,-0.0087,-0.0089,-0.0094,-0.0098,-0.0102,-0.0111,-0.0116,-0.0126,-0.0134,-0.0142,-0.017,-0.0184,-0.0196,-0.0212,-0.0209,-0.0221,-0.023,-0.0238,-0.0225,-0.0238,-0.0237,-0.0251,-0.0251,-0.0252,-0.0252,0,0,-0.0079,-0.0085,-0.0085,-0.0078,-0.0089,-0.009,-0.0089,-0.0087,-0.0078,-0.0103,-0.0092,-0.0124,-0.0137,-0.0148,-0.017,-0.0176,-0.0177,-0.0196,-0.0197,-0.0202,-0.0189,-0.0202,-0.0203,-0.0184,-0.0184,-0.0183,-0.0205,0,-0.007,-0.0066,-0.007,-0.006,-0.0056,-0.0062,-0.0055,-0.0055,-0.0062,-0.0058,-0.0079,-0.0084,-0.012,-0.0125,-0.0137,-0.0164,-0.0174,-0.0171,-0.0206,-0.0207,-0.0215,-0.0202,-0.0182,-0.0205,-0.0205,-0.0205,-0.0205,0,-0.0061,-0.0058,-0.0047,-0.0032,-0.0029,-0.0024,-0.0005,-0.0003,-0.0001,-0.0003,-0.0012,-0.0031,-0.0045,-0.0077,-0.0115,-0.0111,-0.0148,-0.0171,-0.0173,-0.0193,-0.0218,-0.0221,-0.0204,-0.0204,-0.0204,-0.0205,-0.0205,0,-0.0044,-0.0037,-0.0024,-0.0022,-0.0012,-0.0,0.0006,0.0014,0.0029,0.0031,0.0043,0.0018,0.001,-0.0033,-0.0095,-0.0102,-0.0135,-0.0152,-0.0198,-0.02,-0.0196,-0.0199,-0.0176,-0.0176,-0.0176,-0.0176,-0.0176,0,-0.003,-0.0019,-0.0014,-0.0008,0.002,0.002,0.0049,0.0054,0.0071,0.0095,0.007,0.0081,0.0022,-0.001,-0.0071,-0.0133,-0.0121,-0.0188,-0.0202,-0.0184,-0.0185,-0.0196,-0.0198,-0.0177,-0.0177,-0.0177,-0.0177,0,-0.0016,-0.0016,0.0003,0.0018,0.0026,0.0045,0.0075,0.0096,0.0109,0.014,0.0144,0.0134,0.0094,0.0027,-0.004,-0.0099,-0.0158,-0.0187,-0.0161,-0.0175,-0.0227,-0.0227,-0.0232,-0.0232,-0.0233,-0.0233,-0.0234,0,-0.001,-0.0,0.0021,0.0037,0.0044,0.0071,0.0092,0.0111,0.0134,0.017,0.0187,0.0168,0.0145,0.005,-0.0029,-0.014,-0.0164,-0.02,-0.0215,-0.0218,-0.0231,-0.023,-0.023,-0.0234,-0.0234,-0.0234,-0.0235,0,0.0005,0.0012,0.0026,0.0054,0.0077,0.0106,0.0134,0.0159,0.0186,0.0206,0.0226,0.0183,0.014,0.0057,-0.003,-0.0114,-0.0176,-0.0205,-0.0205,-0.0219,-0.0221,-0.0233,-0.0232,-0.0236,-0.0236,-0.0236,-0.0236,0,0.0017,0.0028,0.0043,0.0068,0.0094,0.012,0.0143,0.0172,0.0197,0.0235,0.0242,0.0202,0.0183,0.0071,-0.0008,-0.0091,-0.0118,-0.0156,-0.0159,-0.0159,-0.0137,-0.0128,-0.012,0,0,0,0,0,0.0025,0.0031,0.0057,0.0076,0.0101,0.0108,0.016,0.0182,0.0215,0.0232,0.0238,0.0198,0.0102,0.0069,-0.0015,-0.0035,-0.0146,-0.014,-0.0195,-0.0245,-0.0243,-0.0232,0,0,0,0,0,0,0.003,0.0047,0.0051,0.0068,0.0077,0.0102,0.0128,0.0159,0.0172,0.0204,0.016,0.0155,0.0063,0.014,-0.0027,-0.0049,-0.01,-0.0178,-0.018,-0.0246,-0.0244,-0.0243,-0.0231,0,0,0,0,0]}]]